2021 CQ4 |
ephemeris |
date |
magn |
radius |
delta |
ra |
dec |
elong |
phase |
Today | 20 Oct 2025 | 28.5 | 1.224 AU | 1.460 AU | 10h12m | +12°42' | 56.0° | 42.4° |
2021 CQ4 - 2025-10-20
astro.vanbuitenen.nl
The interactive orbit chart above shows the body's path through the solar system and its position at the given date.
Green and blue lines are shown perpendicular to the ecliptic plane: Green if the path is above the ecliptic plane, blue if it is below.
(Left-click and drag to rotate the view; Right-click and drag to move the view; Use scroll wheel to zoom in our out.)
The orbital elements of 2021 CQ4 are:
e (Eccentricity) : 0.6298190
a (Semimajor axis) : 2.8391568
i (Inclination) : 2.01835
Ω (Longitude of ascending node) : 352.41782
ω (Argument of perihelion) : 166.22616
M (Mean anomaly) : 315.47563
Epoch : 2025 May 05
L (Longitude of perihelion) : 338.65220
B (Latitude of perihelion) : 0.48046
P (Orbital period in years) : 4.78
The light curve chart below shows the estimated development of the minor planet's magnitude.
The all-sky chart below shows the path of the minor planet over the same period as the light curve. The current position is marked yellow.
The following chart shows the path of the minor planet in the next few days. The field of view is optimized for (~10x50) binoculars and finderscopes.
Ephemerides:
Date Time RA (2000) DEC (2000) delta radius elong phase PA magn
2025-10-20 00:00 UT 10 12 33.4 +12 42 55 1.460 1.224 56.0 42.4 292 28.5
2025-10-20 07:44 UT 10 13 52.5 +12 35 20 1.458 1.222 56.0 42.5 292 28.5
2025-10-21 00:00 UT 10 16 39.2 +12 19 15 1.453 1.217 55.9 42.6 292 28.5
2025-10-22 00:00 UT 10 20 45.5 +11 55 14 1.447 1.211 55.8 42.8 292 28.4
2025-10-23 00:00 UT 10 24 52.2 +11 30 52 1.441 1.205 55.7 43.0 292 28.4
2025-10-24 00:00 UT 10 28 59.3 +11 06 11 1.435 1.199 55.6 43.2 293 28.4
2025-10-25 00:00 UT 10 33 06.8 +10 41 11 1.429 1.193 55.5 43.4 293 28.4
2025-10-26 00:00 UT 10 37 14.7 +10 15 52 1.423 1.187 55.4 43.6 293 28.4
2025-10-27 00:00 UT 10 41 22.9 +09 50 16 1.418 1.181 55.3 43.8 293 28.4
Terminology:
delta: distance between minor planet and earth in AU
radius: distance between minor planet and sun in AU
magn: magnitude (brightness) estimate
ra: right ascension in hours (24h = 360deg)
dec: declination in degrees
elong: elongation in degrees (angle sun-earth-minor planet)
phase: phase angle in degrees (angle sun-minor planet-earth)
AU: Astronomical Unit (mean distance between earth and sun: 149597870.7 km
Orbital elements provided by the MPC (Minor Planet Center).
Calculations by a modified version of AAPlus, a C# implementation of the AA+ project by PJ Naughter from the algorithms presented in the book "Astronomical Algorithms" by Jean Meeus.
NGC2000 dso catalog and star labels from VizieR as provided by the Strasbourg astronomical Data Center.
Tycho2 catalog from the ESO archive.